Regional Weather Roundup
Issued by NWS Cleveland, OH

Home | Current Version | Previous Version | Text Only | Print | Product List | Glossary Off
Versions: 1 2 3 4 5 6 7 8 9 10 11 12 13 14 15 16 17 18 19 20 21 22 23 24 25 26 27 28 29 30 31 32 33 34 35 36 37 38 39 40 41 42 43 44 45 46 47 48 49 50

000
ASUS41 KCLE 271902
RWRCLE
OHIO REGIONAL WEATHER ROUNDUP
NATIONAL WEATHER SERVICE CLEVELAND, OH
200 PM EST THU NOV 27 2014

NOTE: "FAIR" INDICATES FEW OR NO CLOUDS BELOW 12,000 FEET WITH NO
SIGNIFICANT WEATHER AND/OR OBSTRUCTIONS TO VISIBILITY.

OHZ001>008-015>018-024>027-034-035-043-044-272000-
   NORTHWEST OHIO

CITY           SKY/WX    TMP DP  RH WIND       PRES   REMARKS
DEFIANCE       CLOUDY    33  25  72 W9        30.21S WCI  25
FINDLAY        CLOUDY    34  22  61 W18       30.19R WCI  23
TOLEDO EXPRESS CLOUDY    33  23  66 W16       30.18S WCI  23
TOLEDO EXEC    CLOUDY    35  23  61 W17       30.19R WCI  25
LIMA           CLOUDY    33  24  69 W16       30.20S WCI  23
$$

OHZ009>014-019>023-028>033-038-089-272000-
   NORTHEAST OHIO

CITY           SKY/WX    TMP DP  RH WIND       PRES   REMARKS
CLE-HOPKINS    PTSUNNY   32  23  69 W14       30.16S WCI  22
CLE-LAKEFRONT  CLOUDY    32  24  72 W18       30.13F WCI  20
CUY CO. ARPT   CLOUDY    34  25  69 W15       30.13S WCI  24
LORAIN-ELYRIA  PTSUNNY   31  21  66 NW14      30.15S WCI  21
ASHTABULA      CLOUDY    31  25  78 W9        30.10S WCI  23
AKRON-CANTON   LGT SNOW  31  22  69 NW13      30.11S WCI  21
WOOSTER        CLOUDY    31  21  66 NW14      30.13F WCI  21
MANSFIELD      PTSUNNY   33  21  61 NW12      30.14S WCI  24
YOUNGSTOWN     FLURRIES  31  25  78 NW13      30.08S WCI  21
$$

OHZ042-051>053-060>062-070>072-077>081-272000-
  SOUTHWEST OHIO

CITY           SKY/WX    TMP DP  RH WIND       PRES   REMARKS
CINC-COVINGTON CLOUDY    32  21  64 W15       30.29R WCI  22
CINC-LUNKEN    CLOUDY    34  22  61 W12       30.31R WCI  25
HAMILTON       CLOUDY    33  24  69 W13G18    30.30R WCI  24
DAYTON         CLOUDY    33  24  69 W14       30.25R WCI  23
WRIGHT-PAT AFB FLURRIES  33  23  67 W10       30.24S WCI  24
DAYTON GENERAL CLOUDY    32  22  66 W14       30.24S WCI  22
WILMINGTON     CLOUDY    31  20  63 W12       30.24R WCI  22
$$

OHZ036-037-039>041-045>050-054>059-063>069-073>076-082>088-272000-
  CENTRAL AND SOUTHEAST OHIO

CITY           SKY/WX    TMP DP  RH WIND       PRES   REMARKS
COLUMBUS       CLOUDY    32  23  69 NW10      30.20R WCI  24
OSU AIRPORT    PTSUNNY   33  21  61 W10       30.19S WCI  25
BOLTON FIELD   CLOUDY    32  23  69 NW5       30.21R WCI  27
RICKENBACK AFB NOT AVBL
NEWARK         CLOUDY    31  22  69 W10       30.19R WCI  22
MARION         CLOUDY    33  19  56 NW10      30.18S WCI  25
LANCASTER      LGT SNOW  32  25  75 NW9       30.21R WCI  24
ZANESVILLE     CLOUDY    31  24  75 NW13      30.16R WCI  21
NEW PHILLY     CLOUDY    32  25  75 NW12      30.15R WCI  23
$$



USA.gov is the U.S. government's official web portal to all federal, state and local government web resources and services.